Location: Alsip
(41.6689°N, 87.7387°W)
Time: 14:21:31
(UTC+00:00)

Tsikada Rocket - Pass Details

Date: 14 July 2020
Orbit: 959 x 1008 km, 82.9° (Epoch: 04 August)

Event Time Altitude Azimuth Distance (km) Brightness Sun altitude
Rises 08:31:40 0° 346° (NNW) 3,745 7.6 -17.3°
Reaches altitude 10° 08:34:17 10° 342° (NNW) 2,793 6.8 -17.0°
Maximum altitude 08:40:24 48° 270° (W) 1,290 4.4 -16.3°
Enters shadow 08:44:16 22° 207° (SSW) 2,028 5.1 -15.8°
